TRANSIT 5B-1 DEB, 2097

Orbit data source: Space-Track

TRANSIT 5B-1 DEB, 2097 is space debris in LEO originally from a launch on Sat, 28 Sep 1963 UTC launched from the Air Force Western Test Range (AFWTR). Debris objects in space refer to the collection of defunct objects orbiting the Earth. Examples of debris include non-operational satellites, rocket bodies, and fragments generated from explosions, collisions, or faulty payload assembly.

Loading next visibility...
Identifier
2097, 1963-038G
Orbit
LEO
Country
Flag of USUS
Related business
Manufacturer
Unknown
Mission
Spacecraft
Bus & Motor
Unknown
Mass
Unknown
Launch date (UTC)
1963-09-28 (62 years ago)
Launch vehicle
Unknown
Launch site
Air Force Western Test Range (AFWTR)
Object type
Payload
Rocket body
Debris
Shape & HBR
Unknown
Radar Cross Section
Small (<0.1 m²)

Expand to show TLE details & history
Last TLE update: 22 hours ago

TLE from 22 hours ago
0 TRANSIT 5B-1 DEB
1 02097U 63038G   25259.48159406  .00000685  00000-0  81745-3 0  9995
2 02097  90.0084 338.1517 0037266 286.7601  84.8133 13.66044436 62252
Epoch: 2025-09-16T11:33Z
TLE epoch observation values (Epoch: 2025-09-16T11:33:29.726Z)
Latitude
11.95473°
Longitude
169.1048°
Altitude
1,013.638 km
Speed
7.347 km/s
True Right ascension
22h 32m 35s
True Declination
11° 53' 16"
Sunlit
Object was in full shadow at epoch
Visualization orbit readout
Latitude
Unknown
Longitude
Unknown
Altitude
Unknown
Speed
Unknown
Apparent Right ascension
Unknown
Apparent Declination
Unknown
Sunlit
N/A
Visualization observer readout
Local Sidereal Time
02:04:50
Azimuth
Unknown
Elevation
Unknown
Doppler factor
Unknown
Orbital elements
Apogee altitude
1,038.368 km
Perigee altitude
983.297 km
Semi-major axis
7,388.97 km
Eccentricity
0.00373
Inclination
90.0084°
RAAN
338.1517°
Arg. of periapsis
286.7601°
True anomaly
85.23876°
Mean anomaly
84.8133°
Eccentric anomaly
85.02601°
Mean motion
3.41718 °/min
Orbital period
105.35 mins
BSTAR
0.00081745
Loading maneuver chart data...
Computing Atmospheric mass density...

Documentation

Showing up to 5 results
|